Location: Oshawa
(43.9000°N, 78.8670°W)
Time: 07:47:02
(UTC-05:00)

Daily predictions for brighter satellites

Satellite Brightness Start Highest point End
(mag) Time Altitude Azimuth Time Altitude Azimuth Time Altitude Azimuth
Cosmos 2322 3.8 17:28:25 10° SSW 17:34:02 69° ESE 17:39:43 10° NNE
SMAP 3.0 17:35:40 10° SSE 17:40:19 81° ENE 17:45:00 10° N
SPOT 3 Rocket 3.5 17:35:20 10° SSE 17:40:28 75° ENE 17:45:37 10° N
Cosmos 858 Rocket 4.5 17:35:26 10° NNW 17:40:42 80° ENE 17:45:57 10° SSE
Thor Agena Rocket 3.7 17:35:54 10° NNE 17:41:07 58° ESE 17:46:14 10° S
Cosmos 1726 3.8 17:39:35 10° NE 17:41:44 14° ENE 17:43:52 10° ESE
Cosmos 2150 Rocket 4.0 17:36:43 10° NNW 17:41:59 77° ENE 17:47:09 10° SSE
SL-16 R/B 3.4 17:37:24 10° SW 17:42:42 40° WNW 17:48:02 10° NNE
Cosmos 2263 Rocket 3.6 17:38:40 10° NW 17:44:02 44° WSW 17:49:22 10° S
Cosmos 2034 Rocket 4.1 17:38:04 10° N 17:44:27 87° E 17:50:50 10° S
Meteor 1-21 Rocket 4.5 17:40:02 10° S 17:45:48 57° E 17:51:33 10° NNE
In-Cosmos 22 4.1 17:41:06 10° S 17:46:25 88° E 17:51:54 10° N
COSMOS 2441 4.4 17:42:00 10° SSE 17:46:48 59° ENE 17:51:35 10° N
Cosmos 1898 Rocket 3.7 17:41:54 10° NNW 17:47:16 80° WSW 17:52:35 10° SSE
ATLAS 3B R/B 4.5 17:42:56 10° W 17:48:44 24° NNW 17:54:21 10° NNE
Atlas Centaur 2 4.1 17:46:11 10° SW 17:49:01 15° SSW 17:51:35 10° SSE
SJ-6B 4.4 17:46:32 10° ESE 17:49:01 16° ENE 17:51:32 10° NNE
Cosmos 1844 Rocket 2.9 17:44:11 10° NNW 17:49:41 49° ENE 17:55:08 10° SE
USA 215 3.3 17:44:35 10° ESE 17:51:05 69° NE 17:57:35 10° NW
IDEFIX/ARIANE 42P 3.0 17:47:00 10° S 17:52:11 71° WSW 17:57:26 10° NNW
Cosmos 2151 4.5 17:50:04 10° SE 17:52:46 17° E 17:55:28 10° NE
Cosmos 1151 Rocket 4.1 17:50:05 10° NNE 17:53:33 23° ENE 17:57:00 10° SE
Meteor 1-28 Rocket 4.5 17:50:46 10° NE 17:53:40 21° E 17:56:33 10° SE
Cosmos 1125 Rocket 4.3 17:50:12 10° N 17:54:38 27° ENE 17:59:03 10° ESE
Cosmos 1814 Rocket 4.0 17:50:14 10° S 17:55:32 73° ESE 18:00:54 10° NNE
Cosmos 1076 Rocket 3.8 17:53:19 10° SSW 17:57:32 69° W 18:01:48 10° N
NOSS 3-2 (C) 4.3 17:54:21 10° WSW 18:00:18 49° NW 18:06:52 10° NNE
Cosmos 2360 Rocket 2.6 17:56:20 10° SW 18:01:55 66° WNW 18:07:32 10° NNE
Cosmos 990 Rocket 4.0 17:57:18 10° NNW 18:02:35 80° ENE 18:07:50 10° SSE
Cosmos 2221 4.4 18:02:42 10° NNW 18:06:34 34° W 18:10:24 10° SSW
OTV 4 2.2 18:04:09 10° SW 18:06:39 25° S 18:09:01 11° ESE
Resurs 01 Rocket 3.1 18:07:54 15° ENE 18:08:15 16° ENE 18:10:51 10° NNE
Cosmos 2333 Rocket 3.0 18:04:01 10° SSE 18:08:50 30° ESE 18:12:51 14° NE
MONITOR-E 4.3 18:09:57 10° S 18:13:07 84° WSW 18:16:18 10° NNW
MSX 4.2 18:08:06 10° S 18:13:47 70° WSW 18:19:32 10° NNW
Cosmos 841 Rocket 3.5 18:12:54 10° S 18:18:06 64° ESE 18:23:20 10° NNE
Cosmos 1766 Rocket 4.4 18:14:18 10° SSW 18:18:40 55° W 18:23:04 10° N
Cosmos 2228 Rocket 3.1 18:18:24 10° N 18:22:49 82° W 18:27:15 10° S
Cosmos 2279 Rocket 4.3 18:17:15 10° N 18:23:05 41° ENE 18:28:54 10° SE
Cosmos 1937 Rocket 4.4 18:19:42 10° NNW 18:24:43 52° WSW 18:29:45 10° S
COSMO-SKYMED 1 2.5 18:20:40 10° NNE 18:25:02 77° ESE 18:29:22 10° S
YAOGAN 1 4.4 18:24:54 10° SSW 18:28:52 35° W 18:32:52 10° NNW
Cosmos 2322 Rocket 4.4 18:24:49 10° W 18:28:52 20° NW 18:32:55 10° N
Cosmos 332 Rocket 3.7 18:24:44 10° S 18:29:30 68° ESE 18:33:55 12° NNE
Cosmos 2219 Rocket 2.3 18:24:52 10° S 18:30:23 57° ESE 18:34:56 15° NE
Cosmos 2278 Rocket 2.4 18:25:14 10° NNW 18:30:43 47° ENE 18:36:10 10° SE
BREEZE M DEB (TANK) 1.3 18:29:59 10° WNW 18:32:54 53° NNE 18:33:08 50° NE
SL-14 R/B 3.6 18:29:43 10° SSE 18:33:25 42° E 18:35:26 23° NE
CENTAUR R/B 2.6 18:31:49 10° SW 18:37:57 79° NW 18:43:56 14° NE
Cosmos 2084 3.8 18:35:24 10° S 18:38:59 35° ESE 18:39:29 33° ESE
Cosmos 1484 Rocket 4.0 18:36:14 10° S 18:39:58 45° W 18:43:48 10° NNW
METEOR-M 4.1 18:35:14 10° SSE 18:40:31 65° ENE 18:45:50 10° N
Cosmos 1844 3.7 18:34:50 10° NNW 18:40:37 90° WSW 18:46:25 10° SSE
Cosmos 836 Rocket 4.4 18:37:22 10° S 18:42:32 67° ESE 18:46:34 17° NNE
Meteor 2-10 4.0 18:39:56 10° N 18:44:53 53° ENE 18:49:54 10° SSE
COSMOS 2428 3.2 18:43:20 10° SW 18:48:59 60° WNW 18:54:39 10° NNE
Lacrosse 5 rocket 2.1 18:47:57 10° NNW 18:50:59 31° NNE 18:50:59 31° NNE
ALOS 2.5 18:49:50 10° SE 18:54:15 44° ENE 18:58:41 10° N
DNEPR-1 R/B 4.4 18:48:37 10° SSW 18:55:34 69° ESE 18:58:32 31° NE
Cosmos 2237 Rocket 2.2 18:52:29 10° S 18:57:58 58° ESE 19:00:18 33° NE
Cosmos 44 3.6 18:55:09 10° S 19:00:12 48° ESE 19:01:00 44° E
Cosmos 371 Rocket 3.3 18:56:07 10° SSW 19:00:56 83° WNW 19:03:53 24° NNE
SL-16 R/B 3.5 18:56:37 10° SSE 18:59:32 23° SE 18:59:32 23° SE
SL-19 R/B 4.3 18:55:49 10° SSE 19:01:47 69° ENE 19:07:26 10° NNW
Cosmos 1300 3.1 18:59:41 10° NNW 19:03:30 62° W 19:07:15 10° S
Lacrosse 5 3.5 19:01:26 10° WNW 19:05:34 24° NNW 19:07:33 19° NNE
Cosmos 2297 4.0 19:01:49 10° NNW 19:07:17 44° ENE 19:07:33 44° ENE
Meteor 1-11 4.1 19:05:11 10° S 19:10:50 85° E 19:16:37 10° NNE
Cosmos 2058 2.8 19:10:34 10° S 19:14:41 82° W 19:15:33 55° N
Cosmos 372 Rocket 3.8 19:11:21 10° NNW 19:16:29 89° WSW 19:21:03 13° SSE
Cosmos 1726 3.5 19:13:44 10° NNW 19:17:16 39° W 19:20:47 10° SSW
Cosmos 44 Rocket 3.4 19:13:59 10° SW 19:19:07 78° NW 19:20:28 50° NNE
Cosmos 1805 Rocket 4.2 19:17:10 10° S 19:20:12 42° SSE 19:20:12 42° SSE
SJ-6B 3.8 19:19:23 10° S 19:23:17 48° W 19:27:17 10° NNW
Cosmos 783 Rocket 4.4 19:20:27 10° SSW 19:25:45 84° ESE 19:26:39 62° NNE
FengYun 1-2 T 4.1 19:20:58 10° SSE 19:26:33 88° WSW 19:32:08 10° NNW
Cosmos 2151 4.2 19:25:45 10° SSW 19:29:44 41° WNW 19:32:22 19° NNW
Cosmos 540 Rocket 3.8 19:29:11 10° SSW 19:34:18 64° WNW 19:35:55 42° N
USA 215 4.5 19:28:19 10° SSE 19:34:20 38° SW 19:40:23 10° WNW
OTV 4 3.8 19:40:01 10° WSW 19:40:16 11° WSW 19:40:16 11° WSW
Resurs 01 Rocket 2.6 19:45:27 43° NW 19:45:27 43° NW 19:48:39 10° NNW
Cosmos 1980 4.2 19:39:13 10° SW 19:44:48 58° WNW 19:46:34 41° N
H-2A ROCKET BODY 4.1 19:32:47 10° WSW 19:46:39 27° SSW 19:49:07 22° SSE
Spot 2 Rocket 3.9 19:44:16 10° S 19:49:15 60° WSW 19:54:15 10° NNW
Cosmos 2333 Rocket 3.2 19:47:32 10° SW 19:52:54 43° WNW 19:54:54 32° NNW
Timation 1 Rocket 4.4 19:52:41 10° NNW 19:58:41 72° WSW 19:58:52 71° SW
BREEZE-M DEB (TANK) 4.5 19:45:12 10° W 20:01:27 57° N 20:01:42 56° N
Cosmos 2278 Rocket 4.1 20:09:49 10° NW 20:14:32 27° WSW 20:19:14 10° SSW
Cosmos 2219 Rocket 4.1 20:10:06 10° WSW 20:14:42 25° NW 20:16:42 21° NNW
CENTAUR R/B 4.3 20:24:36 10° W 20:29:51 25° NNW 20:31:09 23° N
Cosmos 2237 Rocket 4.1 20:37:51 10° WSW 20:42:11 25° NW 20:42:11 25° NW
SL-16 R/B 4.3 20:39:38 10° SW 20:41:30 21° SW 20:41:30 21° SW
